This demonstration page uses our WeatherBlox Daily Observations layout. Learn more.

38.89511, -77.03637

Hourly Observations for March 16, 2015

Temp ( °F °C ) Dew Point ( °F °C ) Humidity (%) Winds ( mph kmh ) Pressure ( in mb ) Visibility ( mi km ) Precip ( " mm )
12:52 am 00:52 Partly Cloudy 44 6.7 29 -1.7 55 55 N 5 7 30.11 1020 10 16.0934 0 0
1:52 am 01:52 Partly Cloudy 44 6.7 29 -1.7 55 55 NNW 6 9 30.11 1020 10 16.0934 0 0
2:52 am 02:52 Partly Cloudy 41 5 31 -0.6 67 67 Calm 30.12 1020 10 16.0934 0 0
3:52 am 03:52 Mostly Cloudy 42 5.6 32 0 68 68 Calm 30.11 1020 10 16.0934 0 0
4:52 am 04:52 Mostly Cloudy 40 4.4 32 0 73 73 Calm 30.12 1020 10 16.0934 0 0
5:52 am 05:52 Mostly Cloudy 39 3.9 31 -0.6 73 73 Calm 30.11 1020 10 16.0934 0 0
6:52 am 06:52 Mostly Cloudy 39 3.9 32 0 76 76 Calm 30.11 1020 10 16.0934 0 0
7:52 am 07:52 Cloudy 40 4.4 35 1.7 83 83 S 7 11 30.09 1019 9 14.48406 0 0
8:52 am 08:52 Cloudy 42 5.6 33 0.6 71 71 S 7 11 30.08 1019 10 16.0934 0 0
9:52 am 09:52 Cloudy 43 6.1 33 0.6 68 68 S 8 13 30.06 1018 10 16.0934 0 0
10:52 am 10:52 Cloudy 46 7.8 34 1.1 63 63 S 8 13 30.04 1017 10 16.0934 0 0
11:52 am 11:52 Cloudy 50 10 34 1.1 54 54 S 8 13 30.01 1016 10 16.0934 0 0
12:52 pm 12:52 Cloudy 55 12.8 36 2.2 49 49 S 7 11 29.96 1015 10 16.0934 0 0
1:52 pm 13:52 Cloudy 59 15 36 2.2 42 42 S 6 9 29.93 1014 10 16.0934 0 0
2:52 pm 14:52 Cloudy 63 17.2 37 2.8 38 38 S 7 11 29.89 1012 10 16.0934 0 0
3:52 pm 15:52 Mostly Cloudy 64 17.8 35 1.7 34 34 S 3 6 29.87 1011 10 16.0934 0 0
4:52 pm 16:52 Mostly Cloudy 67 19.4 37 2.8 33 33 Calm 29.85 1011 10 16.0934 0 0
5:52 pm 17:52 Mostly Cloudy 68 20 37 2.8 32 32 Calm 29.85 1011 10 16.0934 0 0
6:52 pm 18:52 Mostly Cloudy 65 18.3 37 2.8 36 36 ENE 5 7 29.87 1012 10 16.0934 0 0
7:52 pm 19:52 Mostly Cloudy 59 15 37 2.8 44 44 Calm 29.87 1012 10 16.0934 0 0
8:52 pm 20:52 Mostly Cloudy 57 13.9 38 3.3 49 49 Calm 29.87 1012 10 16.0934 0 0
9:52 pm 21:52 Mostly Cloudy 56 13.3 37 2.8 49 49 Calm 29.89 1012 10 16.0934 0 0
10:52 pm 22:52 Mostly Cloudy 54 12.2 38 3.3 55 55 S 5 7 29.87 1012 10 16.0934 0 0
11:52 pm 23:52 Cloudy 53 11.7 38 3.3 57 57 S 5 7 29.85 1011 10 16.0934 0 0

Powered by AerisWeather